Location: Igon
(43.1667°N, 0.2333°W)
Time: 14:35:54
(UTC+00:00)

SKYMED 2 - Pass Details

Date: 29 November 2020
Orbit: 621 x 623 km, 97.9° (Epoch: 23 January)

Event Time Altitude Azimuth Distance (km) Brightness Sun altitude
Rises 05:50:26 0° 188° (S) 2,887 7.1 -14.4°
Reaches altitude 10° 05:52:47 10° 198° (SSW) 1,986 6.1 -14.0°
Maximum altitude 05:56:42 33° 263° (W) 1,047 4.2 -13.3°
Enters shadow 06:00:16 12° 326° (NW) 1,861 5.5 -12.7°
